Aurora, OR

6:12 PM PDT on June 20, 2018 (GMT -0700)
Aurora State

Weather History for KUAO - March, 2014

Change the Weather History Date:

Saturday, March 8, 2014

  Actual Average Record
Temperature  
Mean Temperature 47 °F -  
Max Temperature 56 °F - 72 °F (2004)
Min Temperature 40 °F - 28 °F (2012)
Degree Days  
Heating Degree Days 17    
Month to date heating degree days 121  
Since 1 July heating degree days 3568  
Moisture  
Dew Point 46 °F    
Average Humidity 93    
Maximum Humidity 100    
Minimum Humidity 86    
Precipitation  
Precipitation 0.51 in - 1.00 in (1957)
Month to date precipitation 3.50  
Year to date precipitation 11.82  
Sea Level Pressure  
Sea Level Pressure 30.01 in    
Wind  
Wind Speed 5 mph (South)    
Max Wind Speed 18 mph    
Max Gust Speed 31 mph    
Visibility 7 miles    
Events Fog , Rain    
T = Trace of Precipitation, MM = Missing Value Source: NWS Daily Summary

Daily Weather History Graph

Daily Weather History Graph

Search for Another Location

Airport or City:

Astronomy

Mar. 08, 2014 Rise Set
Actual Time 6:36 AM PST 6:07 PM PST
Civil Twilight 6:06 AM PST 6:37 PM PST
Nautical Twilight 5:32 AM PST 7:11 PM PST
Astronomical Twilight 4:58 AM PST 7:46 PM PST
Moon 11:04 AM PST (3/8) 1:27 AM PST (3/8)
Length of Visible Light 12h 30m
Length of Day
11h 31m
First Quarter, 53% of the Moon is Illuminated
Mar 8
First Quarter
Mar 16
Full
Mar 23
Last Quarter
Mar 30
New
Apr 7
First Quarter

Hourly Weather History & Observations

Time (PST) Temp. Windchill Dew Point Humidity Pressure Visibility Wind Dir Wind Speed Gust Speed Precip Events Conditions
12:53 AM 42.1 °F - 41.0 °F 96% 30.14 in 10.0 mi Calm Calm - N/A   Clear
1:53 AM 42.1 °F 40.2 °F 42.1 °F 100% 30.12 in 7.0 mi ESE 3.5 mph - N/A   Clear
2:25 AM 41.0 °F - 41.0 °F 100% 30.12 in 1.8 mi Calm Calm - N/A   Clear
2:27 AM 41.0 °F - 41.0 °F 100% 30.11 in 1.0 mi Calm Calm - N/A   Mist
2:35 AM 39.9 °F - 39.9 °F 100% 30.11 in 0.5 mi Calm Calm - N/A Fog Fog
2:43 AM 41.0 °F - 39.9 °F 96% 30.10 in 1.2 mi Calm Calm - N/A   Partly Cloudy
2:48 AM 41.0 °F 39.0 °F 39.2 °F 93% 30.10 in 3.0 mi NE 3.5 mph - N/A   Partly Cloudy
2:53 AM 41.0 °F 39.0 °F 39.9 °F 96% 30.09 in 8.0 mi NE 3.5 mph - N/A   Partly Cloudy
3:53 AM 41.0 °F - 41.0 °F 100% 30.08 in 6.0 mi Calm Calm - N/A   Clear
4:53 AM 42.1 °F - 41.0 °F 96% 30.08 in 10.0 mi Calm Calm - N/A   Clear
5:53 AM 41.0 °F 39.0 °F 41.0 °F 100% 30.09 in 10.0 mi WNW 3.5 mph - N/A   Clear
6:53 AM 43.0 °F - 42.1 °F 97% 30.08 in 10.0 mi Calm Calm - N/A   Scattered Clouds
7:53 AM 44.1 °F - 43.0 °F 96% 30.07 in 10.0 mi Calm Calm - N/A   Overcast
8:53 AM 46.0 °F - 44.1 °F 93% 30.06 in 10.0 mi Calm Calm - N/A   Overcast
9:53 AM 46.9 °F - 45.0 °F 93% 30.04 in 10.0 mi Calm Calm - 0.00 in   Overcast
10:53 AM 48.9 °F - 46.0 °F 90% 30.04 in 8.0 mi Calm Calm - 0.02 in Rain Light Rain
11:53 AM 50.0 °F - 46.0 °F 86% 30.01 in 10.0 mi Calm Calm - 0.03 in Rain Light Rain
12:53 PM 50.0 °F - 48.0 °F 93% 29.98 in 8.0 mi Calm Calm - 0.03 in Rain Light Rain
1:53 PM 51.1 °F - 48.9 °F 92% 29.97 in 5.0 mi Calm Calm - 0.03 in Rain Light Rain
2:53 PM 51.1 °F - 48.9 °F 92% 29.95 in 4.0 mi SSE 3.5 mph - 0.05 in Rain Rain
3:53 PM 51.1 °F - 50.0 °F 96% 29.92 in 10.0 mi SSE 3.5 mph - 0.04 in Rain Light Rain
4:53 PM 53.1 °F - 51.1 °F 93% 29.91 in 8.0 mi Calm Calm - 0.01 in Rain Light Rain
5:53 PM 55.0 °F - 52.0 °F 89% 29.89 in 10.0 mi South 11.5 mph 17.3 mph 0.02 in   Overcast
6:53 PM 55.9 °F - 52.0 °F 87% 29.87 in 10.0 mi South 12.7 mph 18.4 mph 0.01 in Rain Light Rain
7:53 PM 55.9 °F - 53.1 °F 90% 29.86 in 10.0 mi South 12.7 mph - 0.02 in Rain Light Rain
8:53 PM 55.9 °F - 53.1 °F 90% 29.88 in 10.0 mi SSW 10.4 mph - 0.04 in Rain Light Rain
9:53 PM 55.0 °F - 52.0 °F 89% 29.91 in 4.0 mi SSW 12.7 mph 20.7 mph 0.09 in Rain Rain
10:09 PM 55.0 °F - 52.0 °F 89% 29.91 in 5.0 mi SW 17.3 mph 28.8 mph 0.02 in Rain Light Rain
10:30 PM 55.0 °F - 52.0 °F 89% 29.93 in 8.0 mi SSW 17.3 mph 25.3 mph 0.04 in Rain Light Rain
10:53 PM 55.0 °F - 53.1 °F 93% 29.94 in 10.0 mi South 16.1 mph 21.9 mph 0.06 in Rain Light Rain
11:53 PM 54.0 °F - 54.0 °F 100% 29.95 in 10.0 mi South 13.8 mph - 0.05 in Rain Light Rain